Weather History for Houston Intercontinental, TX

Change the Weather History Date:

Monday, January 21, 2013

  Actual Average Record
Temperature  
Mean Temperature 58 °F -  
Max Temperature 71 °F 62 °F 77 °F (1999)
Min Temperature 44 °F 42 °F 30 °F (2001)
Degree Days  
Heating Degree Days 8    
Growing Degree Days 8 (Base 50)    
Moisture  
Dew Point 48 °F    
Average Humidity 76    
Maximum Humidity 100    
Minimum Humidity 47    
Precipitation  
Precipitation 0.00 in - - ()
Sea Level Pressure  
Sea Level Pressure 30.19 in    
Wind  
Wind Speed 1 mph (SSW)    
Max Wind Speed 7 mph    
Max Gust Speed -    
Visibility 9 miles    
Events Fog    
Averages and records for this station are not official NWS values.
T = Trace of Precipitation, MM = Missing Value Source: NWS Daily Summary

Daily Weather History Graph

Daily Weather History Graph

Search for Another Location

Airport:

Trip Planner

Search our weather history database for the weather conditions in past years. The results will help you decide how hot, cold, wet, or windy it might be!

Date:

Astronomy

Jan. 21, 2013 Rise Set
Actual Time 7:16 AM CST 5:49 PM CST
Civil Twilight 6:50 AM CST 6:14 PM CST
Nautical Twilight 6:21 AM CST 6:44 PM CST
Astronomical Twilight 5:53 AM CST 7:12 PM CST
Moon 1:31 PM CST (1/21) 2:44 AM CST (1/21)
Length of Visible Light 11h 23m
Length of Day
10h 32m
Waxing Gibbous, 75% of the Moon is Illuminated
Jan 21
Waxing Gibbous
Jan 26
Full
Feb 3
Last Quarter
Feb 10
New
Feb 17
First Quarter

Hourly Weather History & Observations

Time (CST) Temp. Windchill Dew Point Humidity Pressure Visibility Wind Dir Wind Speed Gust Speed Precip Events Conditions
12:53 AM 46.9 °F - 45.0 °F 93% 30.16 in 10.0 mi Calm Calm - N/A   Scattered Clouds
1:53 AM 46.9 °F - 46.0 °F 97% 30.16 in 8.0 mi Calm Calm - N/A Fog Shallow Fog
2:53 AM 45.0 °F - 44.1 °F 97% 30.17 in 7.0 mi Calm Calm - N/A Fog Shallow Fog
3:53 AM 46.0 °F - 45.0 °F 96% 30.16 in 9.0 mi Calm Calm - N/A Fog Shallow Fog
4:53 AM 45.0 °F - 44.1 °F 97% 30.17 in 8.0 mi Calm Calm - N/A Fog Shallow Fog
5:53 AM 45.0 °F 43.5 °F 44.1 °F 97% 30.16 in 6.0 mi North 3.5 mph - N/A   Scattered Clouds
6:53 AM 45.0 °F - 45.0 °F 100% 30.18 in 5.0 mi Calm Calm - N/A   Partly Cloudy
7:53 AM 46.0 °F - 45.0 °F 96% 30.20 in 5.0 mi Calm Calm - N/A   Mostly Cloudy
8:53 AM 50.0 °F - 48.9 °F 96% 30.22 in 5.0 mi Calm Calm - N/A   Mostly Cloudy
9:53 AM 57.0 °F - 51.1 °F 81% 30.24 in 7.0 mi Calm Calm - N/A   Mostly Cloudy
10:53 AM 62.1 °F - 52.0 °F 70% 30.25 in 10.0 mi Calm Calm - N/A   Mostly Cloudy
11:53 AM 64.9 °F - 51.1 °F 61% 30.24 in 10.0 mi Calm Calm - N/A   Mostly Cloudy
12:53 PM 68.0 °F - 48.9 °F 50% 30.21 in 10.0 mi Variable 3.5 mph - N/A   Overcast
1:53 PM 69.1 °F - 50.0 °F 51% 30.18 in 10.0 mi SSW 4.6 mph - N/A   Mostly Cloudy
2:53 PM 70.0 °F - 50.0 °F 49% 30.17 in 10.0 mi SW 5.8 mph - N/A   Mostly Cloudy
3:53 PM 70.0 °F - 48.9 °F 47% 30.17 in 10.0 mi SSE 5.8 mph - N/A   Mostly Cloudy
4:53 PM 66.0 °F - 53.1 °F 63% 30.17 in 10.0 mi South 3.5 mph - N/A   Mostly Cloudy
5:53 PM 64.0 °F - 51.1 °F 63% 30.17 in 10.0 mi SSW 3.5 mph - N/A   Scattered Clouds
6:53 PM 63.0 °F - 50.0 °F 63% 30.18 in 10.0 mi SSE 6.9 mph - N/A   Mostly Cloudy
7:53 PM 62.1 °F - 46.9 °F 58% 30.19 in 10.0 mi South 4.6 mph - N/A   Scattered Clouds
8:53 PM 57.0 °F - 48.0 °F 72% 30.20 in 10.0 mi Calm Calm - N/A   Scattered Clouds
9:53 PM 57.0 °F - 48.9 °F 74% 30.21 in 10.0 mi South 5.8 mph - N/A   Scattered Clouds
10:53 PM 55.0 °F - 48.0 °F 77% 30.21 in 10.0 mi NW 6.9 mph - N/A   Scattered Clouds
11:53 PM 50.0 °F - 46.9 °F 89% 30.22 in 10.0 mi Calm Calm - N/A   Scattered Clouds